Location: Jetmore Motorplex
(37.9889°N, 99.8876°W)
Time: 02:23:44
(UTC+00:00)

Cosmos 2237 Rocket - Pass Details

Date: 17 February 2020
Orbit: 835 x 849 km, 71.0° (Epoch: 05 April)

Event Time Altitude Azimuth Distance (km) Brightness Sun altitude
Exits shadow 10:50:51 14° 358° (N) 2,168 4.4 -31.5°
Drops below altitude 10° 10:51:44 10° 4° (N) 2,453 4.7 -31.3°
Sets 10:54:27 0° 14° (NNE) 3,390 5.6 -30.8°
